Retour au catalogue

FENGYUN 1C DEB

ActifLEO
NORAD 29954·DEBRIS·🇨🇳 China

Lancé May 10, 1999 depuis Taiyuan Satellite Launch Center

Loading…

Prochains Passages (prochaines 24 heures)

TLE

FraisSource: Space-Track

Époque: Sep 14, 2026, 17:15 UTC

1 29954U 99025KC  26257.71936011  .00001747  00000-0  61018-3 0  9992
2 29954 100.1292 348.3558 0073826 210.9364 148.7457 14.35346571 21427

Suivez FENGYUN 1C DEB en temps réel avec AllMySat

Download on the App Store